Regional Weather Roundup
Issued by NWS

Home | Current Version | Previous Version | Text Only | Print | Product List | Glossary Off
Versions: 1 2 3 4 5 6 7 8 9 10 11 12 13 14 15 16 17 18 19 20 21 22 23 24 25 26 27 28 29 30 31 32 33 34 35 36 37 38 39 40 41 42 43 44 45 46 47 48 49 50

000
ASUS43 KMPX 020610
RWRMN
WEATHER ROUNDUP FOR MINNESOTA
NATIONAL WEATHER SERVICE TWIN CITIES/CHANHASSEN MN
100 AM CDT THU OCT 02 2014


NOTE: "FAIR" INDICATES FEW OR NO CLOUDS BELOW 12,000 FEET WITH NO
SIGNIFICANT WEATHER AND/OR OBSTRUCTIONS TO VISIBILITY. N/A MEANS
CURRENT SKY AND/OR WEATHER CONDITIONS ARE NOT AVAILABLE.

MNZ060>063-068>070-020700-
   Twin Cities Metro

CITY           SKY/WX    TMP DP  RH WIND       PRES   REMARKS
TWIN CITIES    CLOUDY    57  56  96 E6        29.81F FOG
6HR MIN TEMP:  57; 6HR MAX TEMP:  59;

ST PAUL        CLOUDY    57  57 100 CALM      29.82F FOG
CRYSTAL        CLOUDY    58  56  93 CALM      29.80F FOG
BLAINE         CLOUDY    59  59 100 CALM      29.82S FOG
LAKEVILLE      FOG       54  54 100 CALM      29.81F VSB 1/4
EDEN PRAIRIE   FOG       55  54  96 CALM      29.80F VSB 1/4
6HR MIN TEMP:  55; 6HR MAX TEMP:  59; 6HR PCP: TRACE;

SOUTH ST PAUL  FOG       57  56  95 CALM      29.81F VSB 1
LAKE ELMO      CLOUDY    55  55 100 CALM      29.83F FOG
$$
MNZ001>005-007-008-013>017-022>024-027-028-020700-
   Northwest Minnesota

CITY           SKY/WX    TMP DP  RH WIND       PRES   REMARKS
BEMIDJI        CLEAR     53  49  88 SW5       29.77S
HALLOCK        MOCLDY    55  48  76 W7        29.74R
ROSEAU         CLOUDY    55  50  82 W7        29.72S
WARROAD        CLOUDY    54  50  87 W8        29.72S
THIEF RVR FALL CLOUDY    55  50  82 SW6       29.76R
CROOKSTON      CLOUDY    57  52  82 W8        29.77R
FOSSTON        CLOUDY    54  48  82 CALM      29.77F
DETROIT LAKES  MOCLDY    55  50  82 W5        29.81S
PARK RAPIDS    CLEAR     50  47  89 S5        29.79S
MAHNOMEN       CLOUDY    53  49  87 SW7       29.78S
$$
MNZ006-009>011-018-025>026-020700-
   North Central Minnesota

CITY           SKY/WX    TMP DP  RH WIND       PRES   REMARKS
BAUDETTE       CLEAR     54  51  90 SW6       29.72R
FLAG ISLAND    CLEAR     54  50  87 SW10      29.68R
INTL FALLS     CLOUDY    55  53  93 S6        29.73S
6HR MIN TEMP:  53; 6HR MAX TEMP:  55;

WASKISH        PTCLDY    55  54  94 CALM      29.75R
BIG FORK       CLOUDY    55  54  94 S8        29.78S FOG
LONGVILLE      MOCLDY    54  52  94 S5        29.80R FOG
GRAND RAPIDS   CLOUDY   N/A N/A N/A S7        29.80S VSB 1
CRANE LAKE     CLOUDY    52  50  93 S3        29.78S
ORR            CLOUDY    52  50  93 S5        29.75S FOG
COOK           CLOUDY    52  52 100 SW7       29.79S FOG
WALKER         FAIR      52  51  95 SW3       29.79R
$$
MNZ012-019>021-037-020700-
   Northeast Minnesota

CITY           SKY/WX    TMP DP  RH WIND       PRES   REMARKS
DULUTH         FOG       52  50  93 SW5       29.83F VSB 1/4
6HR MIN TEMP:  51; 6HR MAX TEMP:  52; 6HR PCP:  0.01;

ELY            CLOUDY    50  48  93 S8        29.80S
HIBBING        FOG       52  50  93 S5        29.81S VSB 1
EVELETH        CLOUDY    52  52 100 SW5       29.83S FOG
DULUTH HARBOR  CLOUDY    54  52  94 CALM      29.84F FOG
TWO HARBORS    CLOUDY    52  46  82 S3        29.82R HAZE
SILVER BAY     LGT RAIN  50  50 100 S3        29.82S
GRAND MARAIS     N/A     51  49  92 CALM      29.83R
G MARAIS ARPRT DRZL/FOG  46  45  93 SW5       29.83S VSB<1/4
$$
MNZ029>031-032-039>041-046>048-054>057-064-020700-
   West Central Minnesota

CITY           SKY/WX    TMP DP  RH WIND       PRES   REMARKS
FERGUS FALLS   CLOUDY    52  46  82 SW3       29.83R
WHEATON        MOCLDY    52  46  82 W6        29.86R
MORRIS         CLEAR     48  46  93 W5        29.83R
ALEXANDRIA     CLEAR     50  47  89 W6        29.84S
ELBOW LAKE     FAIR      49  47  93 W6        29.83R
WADENA         CLEAR     48  46  93 SW5       29.80F
GLENWOOD       CLEAR     52  48  87 W3        29.84R
APPLETON       PTCLDY    50  46  87 W3        29.84R
BENSON         CLEAR     48  48 100 CALM      29.84R
ORTONVILLE     CLEAR     54  46  76 NW5       29.84R
MADISON        CLEAR     52  48  87 CALM      29.85R
WILLMAR        FOG       55  54  94 CALM      29.85R VSB<1/4
$$
MNZ033>034-036-042>043-049>051-058-059-020700-
   Central Minnesota

CITY           SKY/WX    TMP DP  RH WIND       PRES   REMARKS
ST CLOUD       CLOUDY    59  56  89 SW3       29.83S FOG
6HR MIN TEMP:  57; 6HR MAX TEMP:  59;

SAUK CENTRE    FOG       47  47 100 SE3       29.83R VSB 1/4
PAYNESVILLE    FOG       52  52 100 CALM      29.84S VSB 1/4
AITKIN         CLOUDY    57  52  82 SW5       29.81S HAZE
PINE RIVER     FOG       52  52 100 S3        29.84S VSB 3/4
BRAINERD       CLOUDY    54  53  97 S7        29.82S FOG
STAPLES        FOG       48  48 100 CALM      29.81S VSB 1/4
LONG PRAIRIE   FOG       46  46 100 SE3       29.83R VSB 1/2
LITTLE FALLS   CLOUDY    54  52  94 S3        29.83S FOG
LITCHFIELD     CLOUDY    57  57 100 CALM      29.84S FOG
BUFFALO        CLOUDY    58  56  94 CALM      29.84S FOG
MAPLE LAKE     CLOUDY    58  58  98 SW5       29.84S FOG
$$
MNZ037-044-045-052-053-020700-
   East Central Minnesota

CITY           SKY/WX    TMP DP  RH WIND       PRES   REMARKS
PRINCETON      CLOUDY    57  55  94 CALM      29.83S VSB 1/4
MORA           FOG       54  52  94 CALM      29.85S VSB 1/2
CAMBRIDGE      HAZE      57  52  82 CALM      29.81S VSB 1/2
RUSH CITY      LGT RAIN  54  53  97 CALM      29.84R
MOOSE LAKE     FOG       52  52 100 CALM      29.81F VSB 1
HINCKLEY       FOG       54  54 100 CALM      29.83F VSB 1/2
CLOQUET        FOG       52  52 100 CALM      29.82F VSB 1/2
MCGREGOR       CLOUDY    54  52  94 S5        29.83S VSB 1/2
$$
MNZ071>073-080-081-089-090-097-098-020700-
   Southwest Minnesota

CITY           SKY/WX    TMP DP  RH WIND       PRES   REMARKS
MONTEVIDEO     PTCLDY    54  50  87 CALM      29.86R
GRANITE FALLS  CLEAR     48  47  94 NW3       29.86R
CANBY          PTCLDY    51  49  90 CALM      29.86R
MARSHALL       CLEAR     52  45  76 W7        29.85R
REDWOOD FALLS  PTCLDY    54  54 100 W3        29.83R
OLIVIA         FOG       50  46  87 CALM      29.83R VSB 1/2
PIPESTONE      CLEAR     54  48  82 N3        29.86R
WINDOM         FOG       57  57 100 CALM      29.83S VSB<1/4
WORTHINGTON    CLEAR     54  52  94 N6        29.85R
JACKSON        FOG       52  50  93 CALM      29.83S VSB 3/4
TRACY          CLEAR     55  51  87 NW7       29.86R
SLAYTON        CLEAR     55  50  85 NW8       29.86R
$$
MNZ065>067-074>077-082>085-091>093-020700-
   South Central Minnesota

CITY           SKY/WX    TMP DP  RH WIND       PRES   REMARKS
MANKATO        PTCLDY    57  54  88 S3        29.81S
NEW ULM        FOG       54  54 100 CALM      29.82R VSB 1/2
ST JAMES       CLOUDY    61  57  88 CALM      29.82S FOG
FAIRMONT       CLOUDY    55  52  88 CALM      29.82S VSB<1/4
GLENCOE        FOG       56  56 100 CALM      29.81F VSB<1/4
FARIBAULT      MOCLDY    57  57 100 CALM      29.81F FOG
OWATONNA       MOCLDY    57  55  94 CALM      29.82S FOG
WASECA           N/A     55  52  88 S3        29.83S FOG
ALBERT LEA     FOG       54  54 100 NW3       29.83S VSB 3/4
$$
MNZ078>079-086>088-094>096-020700-
   Southeast Minnesota

CITY           SKY/WX    TMP DP  RH WIND       PRES   REMARKS
ROCHESTER      PTCLDY    52  51  97 S7        29.82F FOG
6HR MIN TEMP:  50; 6HR MAX TEMP:  58;

RED WING       PTCLDY    55  54  94 CALM      29.82R FOG
STANTON        MOCLDY    57  55  91 CALM      29.81S FOG
DODGE CENTER   PTCLDY    54  54 100 CALM      29.81F FOG
WINONA         FOG       54  54 100 CALM      29.84S VSB 1/2
AUSTIN         FOG       52  52 100 SE3       29.82F VSB 3/4
PRESTON        MOCLDY    54  53  96 CALM      29.85S FOG
$$
ABBREVIATIONS USED IN REMARKS
   TC - TEMPERATURES IN CELSIUS
  WCI - WIND CHILL INDEX
   HX - HEAT INDEX
  VSB - VISIBILITY
$$



USA.gov is the U.S. government's official web portal to all federal, state and local government web resources and services.